New Haven, CT

3:05 PM EST on December 05, 2019 (GMT -0500)
Tweed-New Haven

Weather History for KHVN - November, 2019

Change the Weather History Date:

Monday, November 18, 2019

  Actual Average Record
Temperature  
Mean Temperature 42 °F -  
Max Temperature 46 °F 49 °F 69 °F (1987)
Min Temperature 39 °F 35 °F 24 °F (1999)
Degree Days  
Heating Degree Days 22    
Moisture  
Dew Point 34 °F    
Average Humidity 69    
Maximum Humidity 80    
Minimum Humidity 63    
Precipitation  
Precipitation 0.00 in - - ()
Sea Level Pressure  
Sea Level Pressure 29.79 in    
Wind  
Wind Speed 11 mph ()    
Max Wind Speed 17 mph    
Max Gust Speed 25 mph    
Visibility 10.0 miles    
Events      
Averages and records for this station are not official NWS values.
T = Trace of Precipitation, MM = Missing Value Source: Averaged Metar Reports

Daily Weather History Graph

Daily Weather History Graph

Search for Another Location

Airport or City:

Astronomy

Nov. 18, 2019 Rise Set
Actual Time 6:42 AM EST 4:30 PM EST
Civil Twilight 6:13 AM EST 4:59 PM EST
Nautical Twilight 5:39 AM EST 5:33 PM EST
Astronomical Twilight 5:06 AM EST 6:06 PM EST
Moon 10:11 PM EST (11/18) 12:12 PM EST (11/18)
Length of Visible Light 10h 46m
Length of Day
9h 47m
Waning Gibbous, 63% of the Moon is Illuminated
Nov 18
Waning Gibbous
Nov 19
Last Quarter
Nov 26
New
Dec 4
First Quarter
Dec 12
Full

Hourly Weather History & Observations

Time (EST) Temp. Windchill Dew Point Humidity Pressure Visibility Wind Dir Wind Speed Gust Speed Precip Events Conditions
12:53 AM 39.9 °F 32.5 °F 30.0 °F 68% 30.01 in 10.0 mi North 12.7 mph - N/A   Overcast
1:53 AM 39.9 °F 32.1 °F 30.9 °F 70% 29.97 in 10.0 mi NNE 13.8 mph - N/A   Overcast
2:35 AM 39.9 °F 31.8 °F 30.0 °F 68% 29.95 in 10.0 mi North 15.0 mph 21.9 mph N/A   Overcast
2:53 AM 39.9 °F 31.4 °F 30.0 °F 68% 29.94 in 10.0 mi North 16.1 mph - N/A   Overcast
3:53 AM 39.9 °F 32.5 °F 30.0 °F 68% 29.92 in 10.0 mi NNE 12.7 mph - N/A   Overcast
4:06 AM 39.9 °F 32.5 °F 30.0 °F 68% 29.92 in 10.0 mi North 12.7 mph - N/A   Overcast
4:33 AM 39.9 °F 32.9 °F 30.0 °F 68% 29.91 in 10.0 mi NNE 11.5 mph 20.7 mph N/A   Overcast
4:53 AM 39.9 °F 32.5 °F 30.0 °F 68% 29.91 in 10.0 mi North 12.7 mph - N/A   Overcast
5:29 AM 39.9 °F 32.5 °F 30.0 °F 68% 29.90 in 10.0 mi NNE 12.7 mph - N/A   Overcast
5:53 AM 39.9 °F 31.4 °F 30.0 °F 68% 29.90 in 10.0 mi NNE 16.1 mph - N/A   Overcast
6:53 AM 39.0 °F 30.3 °F 30.9 °F 73% 29.89 in 10.0 mi North 16.1 mph - N/A   Overcast
7:53 AM 39.9 °F 31.4 °F 32.0 °F 73% 29.87 in 10.0 mi North 16.1 mph - N/A   Overcast
8:53 AM 39.9 °F 31.8 °F 32.0 °F 73% 29.85 in 10.0 mi North 15.0 mph - N/A   Overcast
9:53 AM 39.9 °F 31.1 °F 34.0 °F 79% 29.83 in 10.0 mi North 17.3 mph 24.2 mph N/A   Overcast
10:41 AM 42.1 °F 35.2 °F 36.0 °F 79% 29.80 in 10.0 mi North 12.7 mph - N/A   Overcast
10:53 AM 43.0 °F 36.8 °F 36.0 °F 76% 29.78 in 10.0 mi North 11.5 mph - N/A   Overcast
11:53 AM 43.0 °F 35.4 °F 37.0 °F 80% 29.75 in 10.0 mi North 16.1 mph 25.3 mph N/A   Overcast
12:53 PM 44.1 °F 37.4 °F 36.0 °F 73% 29.73 in 10.0 mi North 13.8 mph - N/A   Overcast
1:49 PM 44.6 °F 37.2 °F 35.6 °F 71% 29.70 in 10.0 mi North 17.3 mph 21.9 mph N/A   Overcast
1:53 PM 45.0 °F 38.2 °F 36.0 °F 71% 29.70 in 10.0 mi North 15.0 mph - N/A   Overcast
2:53 PM 46.0 °F 40.2 °F 37.0 °F 71% 29.70 in 10.0 mi North 12.7 mph 20.7 mph N/A   Overcast
3:53 PM 46.0 °F 40.6 °F 37.0 °F 71% 29.70 in 10.0 mi North 11.5 mph - N/A   Overcast
4:53 PM 46.9 °F - 36.0 °F 66% 29.69 in 10.0 mi North 11.5 mph - N/A   Overcast
5:53 PM 46.9 °F - 36.0 °F 66% 29.70 in 10.0 mi North 9.2 mph - N/A   Overcast
6:53 PM 46.9 °F - 35.1 °F 63% 29.70 in 10.0 mi North 9.2 mph - N/A   Overcast
7:30 PM 46.9 °F - 35.1 °F 63% 29.69 in 10.0 mi North 8.1 mph - N/A   Overcast
7:53 PM 46.0 °F 39.9 °F 35.1 °F 66% 29.68 in 10.0 mi North 13.8 mph - N/A   Overcast
8:39 PM 46.0 °F 43.1 °F 34.0 °F 63% 29.68 in 10.0 mi North 5.8 mph - N/A   Mostly Cloudy
8:53 PM 45.0 °F 42.6 °F 34.0 °F 65% 29.69 in 10.0 mi North 4.6 mph - N/A   Mostly Cloudy
9:26 PM 45.0 °F 42.6 °F 34.0 °F 65% 29.68 in 10.0 mi North 4.6 mph - N/A   Overcast
9:53 PM 45.0 °F 43.5 °F 34.0 °F 65% 29.69 in 10.0 mi North 3.5 mph - N/A   Overcast
10:53 PM 45.0 °F 41.2 °F 34.0 °F 65% 29.69 in 10.0 mi NNE 6.9 mph - N/A   Overcast
11:18 PM 45.0 °F 42.6 °F 35.1 °F 68% 29.69 in 10.0 mi North 4.6 mph - N/A   Overcast
11:50 PM 44.6 °F 42.2 °F 35.6 °F 71% 29.70 in 10.0 mi North 4.6 mph - N/A   Overcast
11:53 PM 45.0 °F 42.6 °F 35.1 °F 68% 29.70 in 10.0 mi North 4.6 mph - N/A   Overcast